User: anonymous   Login
Location: Unspecified
(0.0000°N, 0.0000°E)
Time: 11:48:30
(UTC+02:00)
Language:

YAOGAN 3 - Orbit

View from above orbital plane
View from above orbital plane
View from above satellite
View from above satellite

Ground track
Ground track

The orbit data is extracted from the following two-line orbital elements,

1 32289U 07055A   15182.72117446 -.00000026  00000-0  34993-5 0  9992
2 32289 097.9627 176.8826 0002026 091.0030 269.1400 14.80490274412713
Epoch (UTC): 01 July 2015 17:18:29
Eccentricity: 0.0002026
inclination: 97.9627°
perigee height: 626 km
apogee height: 629 km
right ascension of ascending node: 176.8826°
argument of perigee: 91.0030°
revolutions per day: 14.80490274
mean anomaly at epoch: 269.1400°
orbit number at epoch: 41271

The dashed part of the orbit path shows where the satellite is in the earth's shadow,  

DLR